Regional Weather Roundup
Issued by NWS

Home | Current Version | Previous Version | Graphics & Text | Print | Product List | Glossary On
Versions: 1 2 3 4 5 6 7 8 9 10 11 12 13 14 15 16 17 18 19 20 21 22 23 24 25 26 27 28 29 30 31 32 33 34 35 36 37 38 39 40 41 42 43 44 45 46 47 48 49 50
000
ASUS43 KMPX 022110
RWRMN
WEATHER ROUNDUP FOR MINNESOTA
NATIONAL WEATHER SERVICE TWIN CITIES/CHANHASSEN MN
300 PM CST FRI DEC 02 2016


NOTE: "FAIR" INDICATES FEW OR NO CLOUDS BELOW 12,000 FEET WITH NO
SIGNIFICANT WEATHER AND/OR OBSTRUCTIONS TO VISIBILITY. N/A MEANS
CURRENT SKY AND/OR WEATHER CONDITIONS ARE NOT AVAILABLE.

MNZ060>063-068>070-022200-
   Twin Cities Metro

CITY           SKY/WX    TMP DP  RH WIND       PRES   REMARKS
TWIN CITIES    CLOUDY    33  23  66 NW6       30.25R WCI  28
ST PAUL        CLOUDY    32  24  72 W3        30.26R
CRYSTAL        CLOUDY    32  22  66 W6        30.24R WCI  26
BLAINE         CLOUDY    34  27  75 NW6       30.23S WCI  29
LAKEVILLE      CLOUDY    30  23  74 W7        30.24S WCI  23
EDEN PRAIRIE   CLOUDY    33  23  66 W5        30.24R WCI  29
SOUTH ST PAUL  CLOUDY    33  24  70 NW5       30.24S WCI  28
LAKE ELMO      CLOUDY    32  27  80 NW6       30.24S WCI  26
$$
MNZ001>005-007-008-013>017-022>024-027-028-022200-
   Northwest Minnesota

CITY           SKY/WX    TMP DP  RH WIND       PRES   REMARKS
BEMIDJI        CLOUDY    24  21  87 W9        30.23R WCI  15
HALLOCK        CLOUDY    30  25  80 CALM      30.25S
ROSEAU         CLOUDY    27  21  80 W3        30.24R
WARROAD        CLOUDY    25  21  86 NW7       30.23S WCI  17
THIEF RVR FALL CLOUDY    28  22  78 NW9       30.25S WCI  19
CROOKSTON      CLOUDY    30  25  80 N6        30.26S WCI  24
FOSSTON        CLOUDY    25  19  80 NW9       30.24S WCI  15
DETROIT LAKES  CLOUDY    27  23  86 NW7       30.25S WCI  19
MOORHEAD       CLOUDY    28  19  69 NW3       30.28S
PARK RAPIDS    CLOUDY    26  19  74 W3        30.22R
$$
MNZ006-009>011-018-025>026-022200-
   North Central Minnesota

CITY           SKY/WX    TMP DP  RH WIND       PRES   REMARKS
BAUDETTE       CLOUDY    25  20  81 NW9       30.22S WCI  15
FLAG ISLAND    CLOUDY    23  19  86 NW7       30.22S WCI  15
INTL FALLS     CLOUDY    25  22  88 W6        30.21R WCI  18
WASKISH        CLOUDY    25  23  93 NW7       30.23R WCI  17
BIG FORK       CLOUDY    25  21  86 CALM      30.21S
LONGVILLE      CLOUDY    25  21  86 NW5       30.23R WCI  19
GRAND RAPIDS   CLOUDY    26  22  84 NW7       30.23R WCI  18
CRANE LAKE     CLOUDY    27  25  93 W3        30.22R
ORR            CLOUDY    27  21  80 CALM      30.17S
COOK           CLOUDY    27  23  86 W5        30.20R WCI  21
$$
MNZ012-019>021-037-022200-
   Northeast Minnesota

CITY           SKY/WX    TMP DP  RH WIND       PRES   REMARKS
DULUTH         CLOUDY    28  23  81 NW8       30.18S WCI  20
ELY            CLOUDY    25  23  93 NW6       30.18S WCI  18
HIBBING        CLOUDY    26  23  88 W8        30.19S WCI  18
EVELETH        CLOUDY    28  23  84 NW6       30.20R WCI  21
DULUTH HARBOR  CLOUDY    30  25  80 CALM      30.24R
TWO HARBORS    CLOUDY    32  25  74 NW7       30.18R WCI  26
SILVER BAY     CLOUDY    30  25  80 NW5       30.17R WCI  25
GRAND MARAIS     N/A     34  25  69 CALM      30.18R
G MARAIS ARPRT CLOUDY    27  21  80 NW5       30.13S WCI  21
$$
MNZ029>031-032-039>041-046>048-054>057-064-022200-
   West Central Minnesota

CITY           SKY/WX    TMP DP  RH WIND       PRES   REMARKS
FERGUS FALLS   CLOUDY    27  19  74 N8        30.30S WCI  18
WHEATON        CLOUDY   N/A N/A N/A N7        30.29S
MORRIS         CLOUDY    28  21  74 NW7       30.26R WCI  21
ALEXANDRIA     CLOUDY    27  21  78 NW8       30.25R WCI  19
ELBOW LAKE     CLOUDY    26  21  80 NW9       30.27R WCI  17
WADENA         CLOUDY    27  21  80 W6        30.23S WCI  20
GLENWOOD       CLOUDY    27  21  80 W5        30.25R WCI  21
APPLETON       CLOUDY    28  21  74 NW5       30.28R WCI  23
BENSON         CLOUDY    28  21  74 NW7       30.27R WCI  21
ORTONVILLE     CLOUDY    28  21  74 CALM      30.27R
MADISON        CLOUDY    30  25  80 NW7       30.28R WCI  23
WILLMAR        CLOUDY    28  25  86 W7        30.27R WCI  21
$$
MNZ033>034-036-042>043-049>051-058-059-022200-
   Central Minnesota

CITY           SKY/WX    TMP DP  RH WIND       PRES   REMARKS
ST CLOUD       CLOUDY    29  23  78 NW9       30.24S WCI  20
PAYNESVILLE    CLOUDY    29  24  81 NW6       30.25R WCI  23
AITKIN         CLOUDY    30  21  69 W5        30.21R WCI  25
PINE RIVER     CLOUDY    25  21  86 NW5       30.26R WCI  19
BRAINERD       CLOUDY    27  21  78 NW8       30.24R WCI  19
STAPLES        CLOUDY    25  21  86 NW6       30.24R WCI  18
LONG PRAIRIE   CLOUDY    28  21  74 W6        30.24R WCI  22
LITTLE FALLS   CLOUDY    30  21  69 W8        30.24R WCI  23
LITCHFIELD     CLOUDY    30  25  80 W8        30.25R WCI  23
BUFFALO        CLOUDY    32  24  73 W5        30.25S WCI  27
MAPLE LAKE     CLOUDY    32  27  81 NW5       30.25S WCI  27
$$
MNZ037-044-045-052-053-022200-
   East Central Minnesota

CITY           SKY/WX    TMP DP  RH WIND       PRES   REMARKS
PRINCETON      CLOUDY    30  25  80 W7        30.24S WCI  23
MORA           CLOUDY    30  23  74 W5        30.25R WCI  25
CAMBRIDGE      CLOUDY    32  21  64 W6        30.23R WCI  26
RUSH CITY      CLOUDY    30  25  80 W6        30.24R WCI  24
MOOSE LAKE     CLOUDY    30  25  80 CALM      30.21R
HINCKLEY       CLOUDY    32  27  80 W3        30.23S
CLOQUET        CLOUDY    28  23  80 NW6       30.19S WCI  22
MCGREGOR       CLOUDY    30  25  80 W5        30.22R WCI  25
$$
MNZ071>073-080-081-089-090-097-098-022200-
   Southwest Minnesota

CITY           SKY/WX    TMP DP  RH WIND       PRES   REMARKS
MONTEVIDEO     CLOUDY    28  27  93 N7        30.29R WCI  21
GRANITE FALLS  CLOUDY    31  24  76 NW9       30.29R WCI  23
CANBY          CLOUDY    31  22  70 W8        30.28R WCI  23
MARSHALL       CLOUDY    29  23  78 N7        30.28R WCI  22
REDWOOD FALLS  CLOUDY    30  20  66 W9        30.28R WCI  22
OLIVIA         CLOUDY    30  23  74 NW9       30.26R WCI  22
PIPESTONE      CLOUDY    30  23  74 W13       30.24S WCI  20
WINDOM         CLOUDY    30  25  80 CALM      30.26S
WORTHINGTON    CLOUDY    31  24  75 W10       30.27R WCI  22
JACKSON        CLOUDY    30  23  74 NW10      30.27R WCI  21
TRACY          CLOUDY    31  26  81 NW6       30.27R WCI  25
SLAYTON        CLOUDY    29  24  82 W6        30.26R WCI  23
$$
MNZ065>067-074>077-082>085-091>093-022200-
   South Central Minnesota

CITY           SKY/WX    TMP DP  RH WIND       PRES   REMARKS
MANKATO        CLOUDY    29  22  75 NW9       30.28R WCI  20
NEW ULM        CLOUDY    28  21  74 W9        30.28R WCI  20
ST JAMES       CLOUDY    28  23  80 W12       30.29R WCI  18
FAIRMONT       CLOUDY    30  25  81 NW10      30.28R WCI  21
GLENCOE        CLOUDY    31  26  82 W7        30.25R WCI  24
FARIBAULT      CLOUDY    30  25  80 NW6       30.26R WCI  24
OWATONNA       CLOUDY    30  21  69 W3        30.26R
WASECA         CLOUDY    30  23  74 W8        30.28R WCI  23
ALBERT LEA     CLOUDY    34  25  69 NW7       30.26R WCI  28
$$
MNZ078>079-086>088-094>096-022200-
   Southeast Minnesota

CITY           SKY/WX    TMP DP  RH WIND       PRES   REMARKS
ROCHESTER      CLOUDY    30  23  75 NW7       30.24R WCI  23
RED WING       CLOUDY    34  23  64 W5        30.24R WCI  30
STANTON        CLOUDY    33  23  67 W7        30.24R WCI  27
DODGE CENTER   CLOUDY    28  21  74 NW7       30.24R WCI  21
WINONA         CLOUDY    34  25  69 NW5       30.25R WCI  30
AUSTIN         CLOUDY    30  23  74 NW7       30.25R WCI  23
PRESTON        CLOUDY    30  22  72 W7        30.24R WCI  23
$$
ABBREVIATIONS USED IN REMARKS
   TC - TEMPERATURES IN CELSIUS
  WCI - WIND CHILL INDEX
   HX - HEAT INDEX
  VSB - VISIBILITY
$$



USA.gov is the U.S. government's official web portal to all federal, state and local government web resources and services.